Location: Newark
(54.6833°N, 25.2833°E)
Time: 11:11:17
(UTC+00:00)

Transit 4A - Visible Passes

Search period start: 21 January 2021 00:00
Search period end: 31 January 2021 00:00
Orbit: 864 x 980 km, 66.8° (Epoch: 20 January)

Date Brightness Start Highest point End Pass type
(mag) Time Alt. Az. Time Alt. Az. Time Alt. Az.
21 Jan 9.6 02:14:38 24° SE 02:14:38 24° SE 02:16:47 10° SE visible
21 Jan 9.2 03:58:13 22° SW 03:58:13 22° SW 04:01:10 10° SSW visible
21 Jan 9.3 17:18:34 10° S 17:21:23 22° SSE 17:21:23 22° SSE visible
21 Jan 10.0 19:03:24 10° SW 19:04:58 19° SW 19:04:58 19° SW visible
22 Jan 9.8 02:24:41 18° SSE 02:24:41 18° SSE 02:26:02 10° SSE visible
22 Jan 9.7 04:08:16 13° SW 04:08:16 13° SW 04:09:18 10° SW visible
22 Jan 8.7 17:27:12 10° S 17:31:32 34° SSE 17:31:32 34° SSE visible
22 Jan 9.8 19:12:52 10° SW 19:15:07 23° WSW 19:15:07 23° WSW visible
23 Jan 10.1 02:34:49 11° SSE 02:34:49 11° SSE 02:35:07 10° SSE visible
23 Jan 9.6 15:54:46 10° ESE 15:57:13 12° E 15:58:02 12° E visible
23 Jan 8.2 17:36:04 10° SSW 17:41:37 50° SE 17:41:37 50° SE visible
23 Jan 9.7 19:22:28 10° WSW 19:25:11 26° WSW 19:25:11 26° WSW visible
24 Jan 9.4 16:02:05 10° SE 16:06:07 18° ESE 16:08:01 16° E visible
24 Jan 7.9 17:45:07 10° SSW 17:51:29 68° SE 17:51:34 68° ESE visible
24 Jan 9.7 19:32:09 10° WSW 19:35:09 27° W 19:35:09 27° W visible
25 Jan 9.1 16:10:09 10° SSE 16:15:07 24° ESE 16:17:53 18° ENE visible
25 Jan 7.8 17:54:20 10° SW 18:00:48 87° SE 18:01:26 74° NE visible
25 Jan 9.8 19:41:55 10° W 19:45:00 26° WNW 19:45:00 26° WNW visible
26 Jan 8.7 16:18:35 10° S 16:24:10 33° ESE 16:27:38 20° ENE visible
26 Jan 8.0 18:03:44 10° SW 18:10:10 76° NW 18:11:11 62° NNE visible
26 Jan 9.9 19:51:44 10° W 19:54:45 24° WNW 19:54:45 24° WNW visible
27 Jan 8.4 16:27:18 10° S 16:33:17 43° ESE 16:37:18 20° ENE visible
27 Jan 8.3 18:13:14 10° WSW 18:19:36 61° NW 18:20:50 51° N visible
27 Jan 10.0 20:01:35 10° WNW 20:04:23 22° NW 20:04:23 22° NW visible
28 Jan 8.1 16:36:14 10° SSW 16:42:29 58° ESE 16:46:52 20° NE visible
28 Jan 8.7 18:22:52 10° WSW 18:29:05 50° NW 18:30:24 43° N visible
28 Jan 10.1 20:11:25 10° WNW 20:13:56 20° NW 20:13:56 20° NW visible
29 Jan 7.9 16:45:21 10° SSW 16:51:45 75° SE 16:56:21 20° NE visible
29 Jan 8.9 18:32:35 10° W 18:38:38 42° NNW 18:39:53 38° N visible
29 Jan 10.2 20:21:14 10° WNW 20:23:25 19° NW 20:23:25 19° NW visible
30 Jan 8.0 16:54:38 10° SW 17:01:05 87° NW 17:05:47 19° NE visible
30 Jan 9.1 18:42:22 10° W 18:48:15 36° NNW 18:49:19 34° N visible
30 Jan 10.3 20:30:59 10° NW 20:32:50 17° NW 20:32:50 17° NW visible
